{"data":{"norad_id":62701,"epoch":"2026-09-22T19:49:57.766656Z","epoch_age_seconds":119564,"freshness":"FRESH","line1":"1 62701U 25009CW  26265.82636304  .00000869  00000+0  89476-4 0  9995","line2":"2 62701  97.6998 341.8913 0004124  37.7264 322.4244 14.92757641 91888","mean_motion":14.92757641,"eccentricity":0.0004124,"inclination_deg":97.6998,"raan_deg":341.8913,"arg_perigee_deg":37.7264,"mean_anomaly_deg":322.4244,"bstar":8.9476e-5,"rev_number":9188,"period_min":96.465759775669,"perigee_km":586.46814618822,"apogee_km":592.21492248334,"semimajor_km":6967.4785343358,"source":"CELESTRAK","updated_at":"2026-09-23T09:00:21.584406Z"}}